Tracking 30313 objects as of 21-Apr-2025
HD Live streaming from Space Station
objects crossing your sky now

BEIDOU G7

Track BEIDOU G7 now!
BEIDOU G7 is classified as:


NORAD ID: 41586
Int'l Code: 2016-037A
Perigee: 35,749.6 km
Apogee: 35,836.5 km
Inclination: 1.6 °
Period: 1,436.1 minutes
Semi major axis: 42164 km
RCS: Unknown
Launch date: June 12, 2016
Source: People's Republic of China (PRC)
Launch site: Xichang Space Center, China (XSC)
Your satellite tracking list
Your tracking list is empty




NASA's NSSDC Master Catalog

Two Line Element Set (TLE):
1 41586U 16037A   25110.91150524 -.00000349  00000-0  00000-0 0  9994
2 41586   1.6242  68.1274 0010299 338.6852 241.0948  1.00274296  2657
Source of the keplerian elements: AFSPC